Погода в Наре

Япония     34°41′17″N   135°49′17″E
темп.,
°C
ветер,
м/с
пор.,
м/с
влажн.,
%
обл.,
%
осадки,
мм/ч
давл.,
гПа
погр.,
м
26 февраля, пт
пт2600:00+8в013099 0.0 102429
03:00+8св1136100 0.0 1022116
06:00+7всв1454100 0.1 1023582
09:00+6ссв5879100 0.8 1023676
12:00+7ссв3773100 1.4 1022704
15:00+9с2452100 1.4 10201128
18:00+8с4754100 0.0 1021795
21:00+7с41038100 0.0 1021816
27 февраля, сб
сб2700:00+6с3938100 0.0 1021881
03:00+5ссз3745100 0.0 1023928
06:00+4с4853100 0.0 1025865
09:00+5с4946100 0.0 1027907
12:00+8с583768 0.0 1027988
15:00+9ссз563454 0.0 10261055
18:00+6с354475 0.0 1028644
21:00+5ссв245487 0.0 1032421
28 февраля, вс
вс2800:00+4св2358100 0.0 1032295
03:00+4св2360100 0.0 1032193
06:00+4всв257169 0.0 1033213
09:00+8в376337 0.0 1034527
12:00+13вюв56493 0.0 10321258
15:00+14вюв56456 0.0 10311154
18:00+11вюв59588 0.0 1032663
21:00+10вюв410716 0.0 1033440
1 марта, пн
пн100:00+10вюв4116868 0.0 1031672
03:00+9в278169 0.0 1030339
06:00+8всв238821 0.0 1030145
09:00+11в257236 0.0 1029400
12:00+16вюв245266 0.0 1027981
15:00+18вюв454683 0.1 10241473
18:00+15вюв4862100 0.0 1023404
21:00+13вюв3776100 0.0 1022293
2 марта, вт
вт200:00+12вюв2580100 0.0 1019235
03:00+12всв1183100 0.0 101536
06:00+13ююв1283100 0.0 101162
09:00+15зюз1179100 0.3 100892
12:00+15ююз1390100 2.0 1006137
15:00+9ссз81477100 16.1 1010956
18:00+6ссз51271100 7.1 10151385
21:00+5ссз7146799 7.2 10181533